Regional Weather Roundup
Issued by NWS Charleston, WV

Home | Current Version | Previous Version | Text Only | Print | Product List | Glossary Off
Versions: 1 2 3 4 5 6 7 8 9 10 11 12 13 14 15 16 17 18 19 20 21 22 23 24 25 26 27 28 29 30 31 32 33 34 35 36 37 38 39 40 41 42 43 44 45 46 47 48 49 50

000
ASUS41 KRLX 302110
RWRRLX
West Virginia Regional Weather Roundup
National Weather Service Charleston WV
400 PM EST FRI JAN 30 2015

Note: "fair" indicates few or no clouds below 12,000 feet with no
significant weather and/or obstructions to visibility.

WVZ003-302200-
Northern Panhandle of West Virginia

CITY           SKY/WX    TMP DP  RH WIND       PRES   REMARKS
WHEELING       FLURRIES  18   8  65 NW15G23   30.34R WCI   4
$$

WVZ009-302200-
Northwest West Virginia

CITY           SKY/WX    TMP DP  RH WIND       PRES   REMARKS
PARKERSBURG    PTSUNNY   26   9  48 NW14      30.41R
$$

WVZ006-302200-
Western West Virginia

CITY           SKY/WX    TMP DP  RH WIND       PRES   REMARKS
HUNTINGTON     MOSUNNY   30  13  49 N8        30.40S
$$

WVZ015-302200-
West Central West Virginia

CITY           SKY/WX    TMP DP  RH WIND       PRES   REMARKS
CHARLESTON     PTSUNNY   28  12  51 NW10G24   30.38R
$$

WVZ022-031-302200-
North Central West Virginia

CITY           SKY/WX    TMP DP  RH WIND       PRES   REMARKS
CLARKSBURG     CLOUDY    23  10  57 NW20G26   30.30R WCI   8
MORGANTOWN     LGT SNOW  21  10  62 NW7       30.31R
$$

WVZ025-035-042-045-302200-
Southern West Virginia

CITY           SKY/WX    TMP DP  RH WIND       PRES   REMARKS
BECKLEY        PTSUNNY   21   8  57 NW17G25   30.24R WCI   7
LOGAN            N/A     28  12  50 N10G18    30.32R
BLUEFIELD      MOSUNNY   27   8  44 NW15G21   30.20R
LEWISBURG      PTSUNNY   26  10  50 NW15G21   30.20R
$$

WVZ047-302200-
Northern Mountains of West Virginia

CITY           SKY/WX    TMP DP  RH WIND       PRES   REMARKS
ELKINS         LGT SNOW  20  14  77 NW12G25   30.23R WCI   8
$$

WVZ052-302200-
Eastern Panhandle of West Virginia

CITY           SKY/WX    TMP DP  RH WIND       PRES   REMARKS
MARTINSBURG    MOSUNNY   31  11  43 NW24G32   30.16R
PETERSBURG     PTSUNNY   26   8  46 NW13G24   30.23R
$$


USA.gov is the U.S. government's official web portal to all federal, state and local government web resources and services.